Tuscaloosa, AL

10:38 PM CDT on May 21, 2018 (GMT -0500)
Tuscaloosa Municipal

Weather History for KTCL - November, 2012

Change the Weather History Date:

Tuesday, November 20, 2012

  Actual Average Record
Temperature  
Mean Temperature 55 °F 54 °F  
Max Temperature 69 °F 66 °F 80 °F (1949)
Min Temperature 41 °F 41 °F 24 °F (1951)
Degree Days  
Heating Degree Days 10 12  
Month to date heating degree days 236 184  
Since 1 July heating degree days 349 301  
Growing Degree Days 6 (Base 50)    
Moisture  
Dew Point 46 °F    
Average Humidity 70    
Maximum Humidity 96    
Minimum Humidity 44    
Precipitation  
Precipitation 0.00 in 0.20 in 2.22 in (1991)
Month to date precipitation 0.84 3.06  
Year to date precipitation 40.17 45.96  
Sea Level Pressure  
Sea Level Pressure 30.17 in    
Wind  
Wind Speed 1 mph (SW)    
Max Wind Speed 8 mph    
Max Gust Speed 10 mph    
Visibility 9 miles    
Events      
T = Trace of Precipitation, MM = Missing Value Source: NWS Daily Summary

Daily Weather History Graph

Daily Weather History Graph

Search for Another Location

Airport or City:

Astronomy

Nov. 20, 2012 Rise Set
Actual Time 6:26 AM CST 4:45 PM CST
Civil Twilight 5:59 AM CST 5:12 PM CST
Nautical Twilight 5:29 AM CST 5:42 PM CST
Astronomical Twilight 5:00 AM CST 6:12 PM CST
Moon 12:11 PM CST (11/20) No Moon Set
Length of Visible Light 11h 12m
Length of Day
10h 19m
First Quarter, 51% of the Moon is Illuminated
Nov 20
First Quarter
Nov 28
Full
Dec 6
Last Quarter
Dec 13
New
Dec 19
First Quarter

Hourly Weather History & Observations

Time (CST) Temp. Dew Point Humidity Pressure Visibility Wind Dir Wind Speed Gust Speed Precip Events Conditions
12:53 AM 42.1 °F 41.0 °F 96% 30.20 in 6.0 mi Calm Calm - N/A   Clear
1:53 AM 44.1 °F 42.1 °F 93% 30.20 in 9.0 mi Calm Calm - N/A   Clear
2:53 AM 45.0 °F 43.0 °F 93% 30.19 in 9.0 mi Calm Calm - N/A   Partly Cloudy
3:53 AM 45.0 °F 43.0 °F 93% 30.18 in 8.0 mi Calm Calm - N/A   Scattered Clouds
4:53 AM 46.0 °F 44.1 °F 93% 30.19 in 8.0 mi Calm Calm - N/A   Clear
5:53 AM 45.0 °F 43.0 °F 93% 30.21 in 8.0 mi Calm Calm - N/A   Mostly Cloudy
6:53 AM 45.0 °F 43.0 °F 93% 30.22 in 6.0 mi Calm Calm - N/A   Mostly Cloudy
7:53 AM 48.9 °F 46.0 °F 90% 30.22 in 7.0 mi Calm Calm - N/A   Overcast
8:53 AM 52.0 °F 46.9 °F 83% 30.24 in 9.0 mi Calm Calm - N/A   Overcast
9:53 AM 59.0 °F 48.0 °F 67% 30.22 in 10.0 mi Calm Calm - N/A   Overcast
10:53 AM 62.1 °F 46.9 °F 58% 30.20 in 10.0 mi Calm Calm - N/A   Mostly Cloudy
11:53 AM 64.9 °F 46.9 °F 52% 30.17 in 10.0 mi Calm Calm - N/A   Clear
1:53 PM 68.0 °F 46.9 °F 47% 30.12 in 10.0 mi Variable 4.6 mph - N/A   Clear
2:53 PM 69.1 °F 46.9 °F 45% 30.11 in 10.0 mi WSW 4.6 mph - N/A   Clear
3:53 PM 66.9 °F 48.0 °F 51% 30.11 in 10.0 mi South 3.5 mph - N/A   Clear
4:53 PM 64.0 °F 48.0 °F 56% 30.11 in 10.0 mi WSW 3.5 mph - N/A   Clear
5:53 PM 57.9 °F 48.0 °F 70% 30.12 in 10.0 mi Calm Calm - N/A   Clear
6:53 PM 53.1 °F 48.0 °F 83% 30.13 in 10.0 mi Calm Calm - N/A   Clear
7:53 PM 52.0 °F 48.0 °F 86% 30.14 in 10.0 mi Calm Calm - N/A   Clear
8:53 PM 48.9 °F 46.0 °F 90% 30.15 in 9.0 mi Calm Calm - N/A   Clear
9:53 PM 48.9 °F 46.0 °F 90% 30.15 in 8.0 mi Calm Calm - N/A   Clear
10:53 PM 46.9 °F 45.0 °F 93% 30.16 in 7.0 mi Calm Calm - N/A   Clear
11:53 PM 46.9 °F 45.0 °F 93% 30.15 in 5.0 mi Calm Calm - N/A   Partly Cloudy